LXJ424 KHPN-KBOS

Flight info

Callsign LXJ424
Flight time 0h 43m
Altitude 21000
Route MERIT ROBUC3
Aircraft C25C/M-SDE2E3FGHRWXY/LB1

Departure

Time 2026-05-09 00:45
Airport Westchester County Airport (KHPN)

Arrival

Time 2026-05-09 01:28
Airport Boston Logan International Airport (KBOS)
Time Latitude Longitude Altitude Speed Heading
2026-05-09 00:26 41.06619 -73.70242 414 ft 0 kts 227°
2026-05-09 00:41 41.06615 -73.70266 410 ft 9 kts 268°
2026-05-09 00:41 41.06620 -73.70353 414 ft 10 kts 245°
2026-05-09 00:42 41.06565 -73.70356 411 ft 9 kts 153°
2026-05-09 00:42 41.06509 -73.70316 413 ft 10 kts 150°
2026-05-09 00:42 41.06448 -73.70270 413 ft 10 kts 150°
2026-05-09 00:42 41.06387 -73.70221 413 ft 10 kts 149°
2026-05-09 00:43 41.06327 -73.70174 414 ft 10 kts 149°
2026-05-09 00:43 41.06265 -73.70126 414 ft 10 kts 151°
2026-05-09 00:43 41.06202 -73.70080 411 ft 10 kts 151°
2026-05-09 00:43 41.06138 -73.70033 414 ft 11 kts 154°
2026-05-09 00:44 41.06068 -73.70034 414 ft 10 kts 213°
2026-05-09 00:44 41.06025 -73.70112 413 ft 11 kts 248°
2026-05-09 00:44 41.06063 -73.70188 412 ft 11 kts 331°
2026-05-09 00:44 41.06326 -73.70389 411 ft 93 kts 329°
2026-05-09 00:45 41.07161 -73.71012 626 ft 172 kts 330°
2026-05-09 00:45 41.08345 -73.71850 1697 ft 208 kts 329°
2026-05-09 00:45 41.09373 -73.73328 2818 ft 231 kts 290°
2026-05-09 00:45 41.09513 -73.75453 3023 ft 241 kts 264°
2026-05-09 00:46 41.09382 -73.77677 3276 ft 239 kts 270°
2026-05-09 00:46 41.09561 -73.79738 5051 ft 212 kts 278°
2026-05-09 00:46 41.09842 -73.81627 6454 ft 217 kts 279°
2026-05-09 00:46 41.10163 -73.83678 7010 ft 230 kts 280°
2026-05-09 00:47 41.10545 -73.85918 7011 ft 268 kts 281°
2026-05-09 00:47 41.11063 -73.88036 6999 ft 230 kts 298°
2026-05-09 00:47 41.12341 -73.89377 7041 ft 237 kts 326°
2026-05-09 00:47 41.13837 -73.90337 7343 ft 242 kts 327°
2026-05-09 00:48 41.15343 -73.91308 7896 ft 240 kts 327°
2026-05-09 00:48 41.16913 -73.92111 8311 ft 251 kts 344°
2026-05-09 00:48 41.18674 -73.91639 8828 ft 278 kts 25°
2026-05-09 00:48 41.19950 -73.89655 9849 ft 293 kts 59°
2026-05-09 00:49 41.20748 -73.87113 10634 ft 303 kts 65°
2026-05-09 00:49 41.21510 -73.84409 10998 ft 327 kts 66°
2026-05-09 00:49 41.22336 -73.81371 11010 ft 371 kts 67°
2026-05-09 00:49 41.23161 -73.78287 11015 ft 377 kts 67°
2026-05-09 00:50 41.24025 -73.75043 11012 ft 367 kts 67°
2026-05-09 00:50 41.24837 -73.71849 11015 ft 368 kts 69°
2026-05-09 00:50 41.25553 -73.68552 11460 ft 373 kts 71°
2026-05-09 00:50 41.26294 -73.65245 12062 ft 371 kts 68°
2026-05-09 00:51 41.27095 -73.62008 12822 ft 366 kts 67°
2026-05-09 00:51 41.27842 -73.58790 13591 ft 363 kts 69°
2026-05-09 00:51 41.28549 -73.55594 14326 ft 356 kts 68°
2026-05-09 00:51 41.29292 -73.52477 15050 ft 350 kts 66°
2026-05-09 00:52 41.30015 -73.49420 15789 ft 344 kts 67°
2026-05-09 00:52 41.30689 -73.46404 16543 ft 336 kts 68°
2026-05-09 00:52 41.31369 -73.43465 16993 ft 334 kts 66°
2026-05-09 00:52 41.31836 -73.41500 17000 ft 341 kts 66°
2026-05-09 00:53 41.32789 -73.37392 17003 ft 361 kts 68°
2026-05-09 00:53 41.33530 -73.34135 17155 ft 370 kts 68°
2026-05-09 00:53 41.34280 -73.30859 17569 ft 370 kts 68°
2026-05-09 00:53 41.35037 -73.27579 17988 ft 375 kts 68°
2026-05-09 00:54 41.35555 -73.25315 18271 ft 382 kts 68°
2026-05-09 00:54 41.36336 -73.21892 18629 ft 392 kts 68°
2026-05-09 00:54 41.37131 -73.18417 19039 ft 399 kts 68°
2026-05-09 00:54 41.37938 -73.14875 19624 ft 401 kts 68°
2026-05-09 00:55 41.38507 -73.11203 20217 ft 409 kts 79°
2026-05-09 00:55 41.38852 -73.07435 20810 ft 412 kts 78°
2026-05-09 00:55 41.39279 -73.03599 20959 ft 428 kts 76°
2026-05-09 00:55 41.39761 -72.99637 20970 ft 435 kts 77°
2026-05-09 00:56 41.40160 -72.95662 20975 ft 432 kts 79°
2026-05-09 00:56 41.40551 -72.91696 20970 ft 430 kts 78°
2026-05-09 00:56 41.41148 -72.87830 20962 ft 422 kts 67°
2026-05-09 00:56 41.42215 -72.84234 20964 ft 415 kts 60°
2026-05-09 00:57 41.43404 -72.80742 20969 ft 413 kts 59°
2026-05-09 00:57 41.44616 -72.77279 20968 ft 412 kts 58°
2026-05-09 00:57 41.45848 -72.73836 20972 ft 411 kts 58°
2026-05-09 00:57 41.47079 -72.70405 20969 ft 410 kts 58°
2026-05-09 00:58 41.48311 -72.66990 20972 ft 409 kts 58°
2026-05-09 00:58 41.49543 -72.63574 20968 ft 408 kts 58°
2026-05-09 00:58 41.50778 -72.60159 20974 ft 408 kts 58°
2026-05-09 00:58 41.52007 -72.56750 20975 ft 407 kts 58°
2026-05-09 00:59 41.53240 -72.53343 20975 ft 407 kts 58°
2026-05-09 00:59 41.54468 -72.49944 20977 ft 407 kts 58°
2026-05-09 00:59 41.55657 -72.46511 20971 ft 411 kts 64°
2026-05-09 00:59 41.56089 -72.42707 20959 ft 423 kts 91°
2026-05-09 01:00 41.55340 -72.38922 20961 ft 424 kts 118°
2026-05-09 01:00 41.53590 -72.35837 20959 ft 414 kts 143°
2026-05-09 01:00 41.51175 -72.33927 20968 ft 397 kts 167°
2026-05-09 01:00 41.48564 -72.32859 20874 ft 393 kts 173°
2026-05-09 01:01 41.45941 -72.31983 20550 ft 383 kts 175°
2026-05-09 01:01 41.43409 -72.31205 20233 ft 374 kts 176°
2026-05-09 01:01 41.40927 -72.30041 19890 ft 383 kts 155°
2026-05-09 01:01 41.39003 -72.27602 19554 ft 392 kts 126°
2026-05-09 01:02 41.37990 -72.24262 19223 ft 389 kts 98°
2026-05-09 01:02 41.37947 -72.20706 18916 ft 382 kts 81°
2026-05-09 01:02 41.38242 -72.17204 18616 ft 380 kts 78°
2026-05-09 01:02 41.38591 -72.13726 18317 ft 378 kts 77°
2026-05-09 01:03 41.38973 -72.10263 17976 ft 379 kts 76°
2026-05-09 01:03 41.39811 -72.07005 17616 ft 367 kts 51°
2026-05-09 01:03 41.41376 -72.04390 17273 ft 359 kts 39°
2026-05-09 01:03 41.43094 -72.01976 16941 ft 359 kts 38°
2026-05-09 01:04 41.44845 -71.99587 16601 ft 360 kts 37°
2026-05-09 01:04 41.46604 -71.97209 16271 ft 363 kts 40°
2026-05-09 01:04 41.48175 -71.94560 15937 ft 365 kts 47°
2026-05-09 01:04 41.49615 -71.91776 15551 ft 364 kts 49°
2026-05-09 01:05 41.51084 -71.89046 15155 ft 361 kts 46°
2026-05-09 01:05 41.52584 -71.86432 14765 ft 359 kts 46°
2026-05-09 01:05 41.55518 -71.81227 14015 ft 357 kts 46°
2026-05-09 01:06 41.57026 -71.78576 13675 ft 354 kts 46°
2026-05-09 01:06 41.58484 -71.75934 13348 ft 352 kts 48°
2026-05-09 01:06 41.59879 -71.73273 13010 ft 347 kts 49°
2026-05-09 01:06 41.61285 -71.70678 12691 ft 342 kts 47°
2026-05-09 01:07 41.62692 -71.68145 12368 ft 337 kts 47°
2026-05-09 01:07 41.64052 -71.65608 12111 ft 331 kts 48°
2026-05-09 01:07 41.65372 -71.63136 12046 ft 324 kts 47°
2026-05-09 01:07 41.66704 -71.60730 12034 ft 320 kts 46°
2026-05-09 01:08 41.67970 -71.58283 12026 ft 323 kts 55°
2026-05-09 01:08 41.68793 -71.55510 12021 ft 326 kts 66°
2026-05-09 01:08 41.69569 -71.52630 12020 ft 325 kts 63°
2026-05-09 01:08 41.70451 -71.49846 12024 ft 334 kts 62°
2026-05-09 01:09 41.71289 -71.47040 12027 ft 343 kts 65°
2026-05-09 01:09 41.72112 -71.44007 12034 ft 347 kts 64°
2026-05-09 01:09 41.73195 -71.41182 12034 ft 339 kts 51°
2026-05-09 01:09 41.74447 -71.38503 12039 ft 340 kts 54°
2026-05-09 01:10 41.75571 -71.35714 12037 ft 341 kts 57°
2026-05-09 01:10 41.76712 -71.32921 12039 ft 339 kts 53°
2026-05-09 01:10 41.77929 -71.30230 12037 ft 338 kts 53°
2026-05-09 01:10 41.79111 -71.27483 11917 ft 343 kts 55°
2026-05-09 01:11 41.80251 -71.24682 11768 ft 341 kts 55°
2026-05-09 01:11 41.81431 -71.21936 11602 ft 337 kts 53°
2026-05-09 01:11 41.82606 -71.19257 11455 ft 330 kts 54°
2026-05-09 01:11 41.83709 -71.16593 11295 ft 323 kts 55°
2026-05-09 01:12 41.84801 -71.13998 11172 ft 316 kts 54°
2026-05-09 01:12 41.85895 -71.11488 11168 ft 309 kts 54°
2026-05-09 01:12 41.86960 -71.08998 11160 ft 307 kts 54°
2026-05-09 01:12 41.88043 -71.06515 11157 ft 310 kts 53°
2026-05-09 01:13 41.89137 -71.04012 11158 ft 313 kts 54°
2026-05-09 01:13 41.90222 -71.01459 11163 ft 316 kts 55°
2026-05-09 01:13 41.91327 -70.98901 11165 ft 316 kts 54°
2026-05-09 01:13 41.92440 -70.96345 11169 ft 317 kts 54°
2026-05-09 01:14 41.93519 -70.93806 11167 ft 317 kts 55°
2026-05-09 01:14 41.94621 -70.91246 11175 ft 316 kts 54°
2026-05-09 01:14 41.95728 -70.88699 11128 ft 316 kts 55°
2026-05-09 01:14 41.96822 -70.86122 10917 ft 319 kts 56°
2026-05-09 01:15 41.97938 -70.83519 10656 ft 324 kts 55°
2026-05-09 01:15 41.99034 -70.80980 10389 ft 307 kts 56°
2026-05-09 01:15 42.00087 -70.78496 10113 ft 304 kts 56°
2026-05-09 01:15 42.01173 -70.76074 9842 ft 299 kts 49°
2026-05-09 01:16 42.02547 -70.74029 9556 ft 292 kts 40°
2026-05-09 01:16 42.03933 -70.72039 9317 ft 290 kts 44°
2026-05-09 01:16 42.05217 -70.70009 9236 ft 282 kts 45°
2026-05-09 01:17 42.07901 -70.66066 8544 ft 285 kts 44°
2026-05-09 01:17 42.09202 -70.64062 8303 ft 284 kts 45°
2026-05-09 01:17 42.10588 -70.62183 8048 ft 280 kts 30°
2026-05-09 01:17 42.12350 -70.61290 7842 ft 268 kts
2026-05-09 01:18 42.14192 -70.60909 7615 ft 268 kts
2026-05-09 01:18 42.16033 -70.60473 7384 ft 269 kts
2026-05-09 01:18 42.17882 -70.60099 7148 ft 268 kts
2026-05-09 01:18 42.19736 -70.59746 6828 ft 271 kts
2026-05-09 01:19 42.21577 -70.59315 6611 ft 264 kts
2026-05-09 01:19 42.23354 -70.59236 6398 ft 250 kts 343°
2026-05-09 01:19 42.24985 -70.60013 5988 ft 249 kts 334°
2026-05-09 01:19 42.26585 -70.60888 5514 ft 247 kts 335°
2026-05-09 01:20 42.28161 -70.61765 5047 ft 243 kts 334°
2026-05-09 01:20 42.29702 -70.62658 4582 ft 240 kts 334°
2026-05-09 01:20 42.31233 -70.63495 4112 ft 241 kts 336°
2026-05-09 01:20 42.32795 -70.64320 3694 ft 241 kts 335°
2026-05-09 01:21 42.34344 -70.65154 3282 ft 233 kts 336°
2026-05-09 01:21 42.35734 -70.65883 3042 ft 196 kts 336°
2026-05-09 01:21 42.36953 -70.66516 2982 ft 186 kts 336°
2026-05-09 01:21 42.38065 -70.67349 2981 ft 182 kts 308°
2026-05-09 01:22 42.38558 -70.68900 2980 ft 181 kts 285°
2026-05-09 01:22 42.38914 -70.70539 2980 ft 182 kts 287°
2026-05-09 01:22 42.39274 -70.72191 2982 ft 183 kts 285°
2026-05-09 01:22 42.39625 -70.73845 2982 ft 183 kts 286°
2026-05-09 01:23 42.39895 -70.75519 2983 ft 182 kts 274°
2026-05-09 01:23 42.39793 -70.77120 3100 ft 167 kts 261°
2026-05-09 01:23 42.39560 -70.78669 3036 ft 169 kts 260°
2026-05-09 01:23 42.39293 -70.80244 2834 ft 174 kts 258°
2026-05-09 01:24 42.39012 -70.81847 2588 ft 176 kts 259°
2026-05-09 01:24 42.38729 -70.83457 2351 ft 176 kts 258°
2026-05-09 01:24 42.38445 -70.85055 2111 ft 174 kts 258°
2026-05-09 01:24 42.38179 -70.86571 1877 ft 159 kts 258°
2026-05-09 01:25 42.37933 -70.87954 1667 ft 144 kts 258°
2026-05-09 01:25 42.37720 -70.89159 1477 ft 120 kts 259°
2026-05-09 01:25 42.37526 -70.90240 1317 ft 117 kts 259°
2026-05-09 01:25 42.37339 -70.91302 1158 ft 115 kts 259°
2026-05-09 01:26 42.37151 -70.92362 1003 ft 117 kts 257°
2026-05-09 01:26 42.36957 -70.93456 850 ft 120 kts 258°
2026-05-09 01:26 42.36773 -70.94509 689 ft 111 kts 256°
2026-05-09 01:26 42.36596 -70.95491 542 ft 104 kts 256°
2026-05-09 01:27 42.36443 -70.96404 407 ft 98 kts 256°
2026-05-09 01:27 42.36293 -70.97271 298 ft 93 kts 255°
2026-05-09 01:27 42.36136 -70.98111 206 ft 92 kts 256°
2026-05-09 01:27 42.35986 -70.98972 68 ft 92 kts 257°
2026-05-09 01:28 42.35858 -70.99715 19 ft 70 kts 256°
2026-05-09 01:28 42.35765 -71.00243 19 ft 44 kts 257°
2026-05-09 01:28 42.35770 -71.00544 19 ft 24 kts 281°
2026-05-09 01:28 42.35788 -71.00706 19 ft 15 kts 277°
2026-05-09 01:29 42.35800 -71.00821 19 ft 12 kts 281°
2026-05-09 01:29 42.35818 -71.00972 19 ft 21 kts 278°
2026-05-09 01:29 42.35836 -71.01147 19 ft 14 kts 276°
2026-05-09 01:29 42.35847 -71.01269 19 ft 11 kts 277°
2026-05-09 01:30 42.35849 -71.01287 19 ft 0 kts 278°
2026-05-09 01:30 42.35854 -71.01327 19 ft 10 kts 278°
2026-05-09 01:30 42.35868 -71.01443 19 ft 15 kts 281°
2026-05-09 01:30 42.35928 -71.01530 19 ft 14 kts 11°
2026-05-09 01:31 42.36022 -71.01484 19 ft 15 kts 21°
2026-05-09 01:31 42.36121 -71.01437 19 ft 15 kts 19°
2026-05-09 01:31 42.36225 -71.01387 19 ft 16 kts 20°
2026-05-09 01:31 42.36333 -71.01334 19 ft 17 kts 20°
2026-05-09 01:32 42.36444 -71.01280 19 ft 17 kts 20°
2026-05-09 01:32 42.36559 -71.01225 19 ft 18 kts 20°
2026-05-09 01:32 42.36678 -71.01171 19 ft 18 kts 20°
2026-05-09 01:32 42.36800 -71.01163 19 ft 18 kts 326°
2026-05-09 01:33 42.36890 -71.01282 19 ft 18 kts 315°
2026-05-09 01:33 42.36979 -71.01401 19 ft 18 kts 315°
2026-05-09 01:33 42.37068 -71.01519 19 ft 18 kts 315°
2026-05-09 01:33 42.37155 -71.01636 19 ft 18 kts 315°
2026-05-09 01:34 42.37242 -71.01753 19 ft 18 kts 315°
2026-05-09 01:34 42.37328 -71.01868 19 ft 17 kts 315°
2026-05-09 01:34 42.37414 -71.01983 19 ft 17 kts 315°
2026-05-09 01:34 42.37430 -71.02094 19 ft 11 kts 222°
2026-05-09 01:35 42.37399 -71.02144 19 ft 5 kts 261°
2026-05-09 01:35 42.37409 -71.02171 19 ft 0 kts 308°
2026-05-09 01:35 42.37412 -71.02176 19 ft 0 kts 315°